Change the Weather History Date:

Friday, March 8, 2013

  Actual Average Record
Temperature  
Mean Temperature 37 °F 39 °F  
Max Temperature 43 °F 48 °F 78 °F (2000)
Min Temperature 30 °F 30 °F 11 °F (2007)
Degree Days  
Heating Degree Days 28 26  
Month to date heating degree days 225 216  
Since 1 July heating degree days 3826 4030  
Cooling Degree Days 0 0  
Month to date cooling degree days 0 0  
Year to date cooling degree days 0 0  
Moisture  
Dew Point 29 °F    
Average Humidity 73    
Maximum Humidity 92    
Minimum Humidity 54    
Precipitation  
Precipitation 0.18 in 0.14 in 1.54 in (2008)
Month to date precipitation 0.27 0.99  
Year to date precipitation 4.89 6.46  
Sea Level Pressure  
Sea Level Pressure 30.06 in    
Wind  
Wind Speed 12 mph (North)    
Max Wind Speed 17 mph    
Max Gust Speed 25 mph    
Visibility 3 miles    
Events Fog , Rain , Snow    
T = Trace of Precipitation, MM = Missing Value Source: NWS Daily Summary

Daily Weather History Graph

Daily Weather History Graph

Search for Another Location

Airport or City:

Trip Planner

Search our weather history database for the weather conditions in past years. The results will help you decide how hot, cold, wet, or windy it might be!

Date:

Astronomy

Mar. 08, 2013 Rise Set
Actual Time 6:21 AM EST 5:58 PM EST
Civil Twilight 5:54 AM EST 6:26 PM EST
Nautical Twilight 5:23 AM EST 6:57 PM EST
Astronomical Twilight 4:51 AM EST 7:29 PM EST
Moon 4:04 AM EST (3/8) 2:50 PM EST (3/8)
Length of Visible Light 12h 31m
Length of Day
11h 37m
Waning Crescent, 12% of the Moon is Illuminated
Mar 8
Waning Crescent
Mar 11
New
Mar 19
First Quarter
Mar 27
Full
Apr 3
Last Quarter

Hourly Weather History & Observations

Time (EST) Temp. Windchill Dew Point Humidity Pressure Visibility Wind Dir Wind Speed Gust Speed Precip Events Conditions
12:03 AM 33.8 °F 28.6 °F 30.2 °F 87% 30.08 in 2.0 mi North 5.8 mph - 0.00 in Snow Light Snow
12:53 AM 33.1 °F 23.4 °F 30.0 °F 89% 30.06 in 2.0 mi North 13.8 mph 18.4 mph 0.01 in Snow Light Snow
1:16 AM 32.0 °F 23.0 °F 28.4 °F 87% 30.07 in 3.0 mi North 11.5 mph 19.6 mph 0.00 in Snow Light Snow
1:34 AM 32.0 °F 23.0 °F 28.4 °F 87% 30.07 in 4.0 mi North 11.5 mph - 0.00 in Snow Light Snow
1:53 AM 32.0 °F 24.2 °F 28.9 °F 88% 30.05 in 5.0 mi North 9.2 mph - 0.00 in Snow Light Snow
2:44 AM 32.0 °F 23.6 °F 28.4 °F 87% 30.05 in 3.0 mi North 10.4 mph - 0.00 in Snow Light Snow
2:53 AM 32.0 °F 23.6 °F 28.0 °F 85% 30.03 in 2.5 mi North 10.4 mph - 0.00 in Snow Light Snow
3:23 AM 30.2 °F 22.6 °F 28.4 °F 93% 30.03 in 3.0 mi North 8.1 mph - 0.00 in Snow Light Snow
3:43 AM 30.2 °F 21.9 °F 28.4 °F 93% 30.03 in 2.5 mi NNW 9.2 mph - 0.00 in Snow Light Snow
3:53 AM 30.9 °F 22.8 °F 28.0 °F 89% 30.02 in 2.5 mi NNW 9.2 mph - 0.00 in Snow Light Snow
4:29 AM 30.2 °F 21.3 °F 28.4 °F 93% 30.03 in 1.5 mi North 10.4 mph - 0.00 in Snow Light Snow
4:53 AM 30.9 °F 21.7 °F 28.0 °F 89% 30.02 in 1.2 mi North 11.5 mph 18.4 mph 0.00 in Snow Light Snow
5:06 AM 30.2 °F 20.8 °F 28.4 °F 93% 30.02 in 1.2 mi North 11.5 mph 17.3 mph 0.00 in Snow Light Snow
5:34 AM 30.2 °F 21.3 °F 28.4 °F 93% 30.03 in 1.5 mi North 10.4 mph 19.6 mph 0.00 in Snow Light Snow
5:53 AM 30.0 °F 20.5 °F 27.0 °F 88% 30.01 in 2.0 mi North 11.5 mph - 0.00 in Snow Light Snow
5:58 AM 30.2 °F 20.8 °F 26.6 °F 86% 30.02 in 1.8 mi North 11.5 mph - 0.00 in Snow Light Snow
6:19 AM 30.2 °F 21.3 °F 28.4 °F 93% 30.03 in 1.0 mi North 10.4 mph - 0.00 in Snow Light Snow
6:27 AM 30.2 °F 21.9 °F 28.4 °F 93% 30.03 in 1.0 mi North 9.2 mph - 0.00 in Snow Light Snow
6:38 AM 30.2 °F 21.3 °F 28.4 °F 93% 30.03 in 0.5 mi North 10.4 mph - 0.00 in Fog , Snow Snow
6:53 AM 30.0 °F 20.5 °F 28.0 °F 92% 30.02 in 0.5 mi North 11.5 mph - 0.00 in Fog , Snow Snow
7:25 AM 30.2 °F 21.3 °F 26.6 °F 86% 30.04 in 0.5 mi North 10.4 mph - 0.00 in Fog , Snow Snow
7:53 AM 30.0 °F 21.7 °F 27.0 °F 88% 30.04 in 0.5 mi North 9.2 mph - 0.00 in Fog , Snow Snow
8:09 AM 30.2 °F 21.3 °F 26.6 °F 86% 30.04 in 0.5 mi North 10.4 mph - 0.00 in Fog , Snow Snow
8:22 AM 30.2 °F 20.8 °F 26.6 °F 86% 30.04 in 0.5 mi North 11.5 mph - 0.00 in Fog , Snow Snow
8:46 AM 30.2 °F 20.8 °F 28.4 °F 93% 30.04 in 0.5 mi North 11.5 mph - 0.00 in Fog , Snow Snow
8:53 AM 30.0 °F 21.7 °F 28.0 °F 92% 30.04 in 0.5 mi North 9.2 mph 19.6 mph 0.00 in Fog , Snow Snow
9:07 AM 30.2 °F 20.2 °F 28.4 °F 93% 30.05 in 0.5 mi North 12.7 mph - 0.00 in Fog , Snow Snow
9:14 AM 30.2 °F 20.8 °F 28.4 °F 93% 30.05 in 0.8 mi North 11.5 mph 18.4 mph 0.00 in Snow Light Snow
9:34 AM 30.2 °F 20.2 °F 28.4 °F 93% 30.05 in 0.5 mi North 12.7 mph - 0.00 in Fog , Snow Snow
9:53 AM 30.9 °F 20.7 °F 28.0 °F 89% 30.04 in 0.5 mi North 13.8 mph 21.9 mph 0.00 in Fog , Snow Snow
10:13 AM 30.2 °F 20.8 °F 28.4 °F 93% 30.06 in 0.8 mi North 11.5 mph - 0.01 in Snow Light Snow
10:48 AM 32.0 °F 21.6 °F 28.4 °F 87% 30.06 in 1.0 mi North 15.0 mph - 0.02 in Snow Light Snow
10:53 AM 32.0 °F 23.0 °F 28.9 °F 88% 30.05 in 0.8 mi North 11.5 mph 19.6 mph 0.02 in Snow Light Snow
11:19 AM 32.0 °F 22.5 °F 28.4 °F 87% 30.06 in 1.0 mi North 12.7 mph - 0.03 in Snow Light Snow
11:26 AM 33.8 °F 24.8 °F 28.4 °F 81% 30.06 in 1.0 mi North 12.7 mph - 0.03 in Snow Light Snow
11:53 AM 33.1 °F 22.6 °F 30.0 °F 89% 30.06 in 1.2 mi North 16.1 mph 21.9 mph 0.06 in Snow Light Snow
12:15 PM 33.8 °F 23.9 °F 30.2 °F 87% 30.06 in 0.8 mi North 15.0 mph 23.0 mph 0.03 in Snow Light Snow
12:22 PM 33.8 °F 24.3 °F 30.2 °F 87% 30.06 in 0.8 mi North 13.8 mph 23.0 mph 0.04 in Snow Light Snow
12:34 PM 33.8 °F 24.3 °F 30.2 °F 87% 30.06 in 0.8 mi North 13.8 mph - 0.04 in Snow Light Snow
12:42 PM 33.8 °F 24.8 °F 30.2 °F 87% 30.06 in 0.8 mi North 12.7 mph - 0.05 in Snow Light Snow
12:53 PM 33.1 °F 24.9 °F 30.9 °F 92% 30.04 in 0.8 mi North 10.4 mph - 0.06 in Snow Light Snow
1:21 PM 33.8 °F 25.8 °F 30.2 °F 87% 30.05 in 1.0 mi North 10.4 mph 18.4 mph 0.02 in Snow Light Snow
1:53 PM 35.1 °F 27.9 °F 30.9 °F 85% 30.04 in 2.0 mi North 9.2 mph - 0.02 in Snow Light Snow
2:05 PM 35.6 °F 28.0 °F 30.2 °F 81% 30.05 in 6.0 mi North 10.4 mph - 0.00 in Snow Light Snow
2:53 PM 37.0 °F 28.5 °F 30.9 °F 79% 30.04 in 9.0 mi North 13.8 mph - 0.00 in Rain Light Rain
3:05 PM 37.4 °F 30.3 °F 30.2 °F 75% 30.06 in 10.0 mi North 10.4 mph - 0.00 in Rain Light Rain
3:34 PM 39.2 °F 33.0 °F 30.2 °F 70% 30.06 in 10.0 mi North 9.2 mph - 0.01 in Rain Light Rain
3:53 PM 39.9 °F 32.9 °F 32.0 °F 73% 30.05 in 10.0 mi North 11.5 mph - 0.01 in Rain Light Rain
4:53 PM 42.1 °F 35.7 °F 30.0 °F 62% 30.07 in 10.0 mi North 11.5 mph - 0.00 in   Overcast
5:53 PM 42.1 °F 34.9 °F 28.9 °F 60% 30.10 in 10.0 mi North 13.8 mph - N/A   Mostly Cloudy
6:53 PM 39.9 °F 33.4 °F 28.9 °F 65% 30.13 in 10.0 mi North 10.4 mph - N/A   Partly Cloudy
7:53 PM 39.9 °F 31.8 °F 27.0 °F 60% 30.16 in 10.0 mi NNE 15.0 mph - N/A   Partly Cloudy
8:53 PM 39.0 °F 31.0 °F 26.1 °F 60% 30.17 in 10.0 mi North 13.8 mph - N/A   Partly Cloudy
9:53 PM 39.0 °F 32.3 °F 25.0 °F 57% 30.19 in 10.0 mi North 10.4 mph - N/A   Overcast
10:53 PM 37.9 °F 29.6 °F 25.0 °F 60% 30.19 in 10.0 mi North 13.8 mph - N/A   Scattered Clouds
11:53 PM 37.0 °F 28.9 °F 24.1 °F 59% 30.19 in 10.0 mi North 12.7 mph - N/A   Clear